sat.trackr.live / text

‹ back to catalog

KUIPER-00223

NORAD 67783 · 2026-030V

PAYLOAD ACTIVE UNKNOWN

§ Identity

Operator
Country
US
Launch date
2026-02-12
Launch site
FRGUI
Launch vehicle
Mass (kg)
RCS (m²)

External: N2YO · Heavens-Above · Gunter

§ Orbital elements

Epoch: 2026-09-20T14:21:32.846112Z

Period
97.30 min
Inclination
51.9019°
Eccentricity
0.0000601
Mean motion
14.79936684 rev/d
Perigee alt
629.1 km
Apogee alt
629.9 km
Semi-major
7,007.7 km
B*
2.6794e-4
RAAN
51.1702°
Arg perigee
123.5903°
Mean anomaly
236.5117°
Rev number
3,432

§ Raw data

KUIPER-002231 67783U 26030V   26263.59829683  .00001822  00000+0  26794-3 0  99942 67783  51.9019  51.1702 0000601 123.5903 236.5117 14.79936684 34328

JSON: /api/v1/satellites/67783 · /tle

For live sub-satellite position, see the globe view (requires WebGL).

§ Visibility from observer

Set your observer location to see the next 7 days of passes ≥ 10°. The values pass through the URL so the page stays shareable.

No JS? Fill the form by hand. The geolocation button needs JavaScript.